Flag for U.S.A. Weather past 2 weeks in Houston, Texas, U.S.A.

Now
57 °F

Partly cloudy.


Feels Like: 56 °F
Forecast: 47 / 62 °F
Wind: 6 mph from Southeast

Location: Houston Hobby Airport

Current Time: Jan 30, 2015 at 7:48:52 PM

Latest Report: Jan 30, 2015 at 6:53 PM


Visibility: 10 mi

Pressure: 30.32 "Hg

Humidity: 58%

Dew point: 42 °F

Location of HoustonLocation

Historic Weather in Houston — Graph

°F

Houston temperature yesterday

Maximum temperature yesterday: 75 °F (at 3:53 PM)
Minimum temperature yesterday: 51 °F (at 1:53 AM)
Average temperature yesterday: 63 °F

Past Weeks' High & Low Weather Summary

 TemperatureHumidityPressure
High78 °F (Jan 27, 3:53 PM)100% (Jan 20, 12:53 AM)30.43 "Hg (Jan 20, 12:53 AM)
Low36 °F (Jan 16, 5:53 AM)24% (Jan 18, 3:53 PM)29.92 "Hg (Jan 20, 3:53 PM)
Average55 °F70%30.16 "Hg
* Reported Jan 15 6:53 PM — Jan 30 6:53 PM, Houston, Weather by CustomWeather, © 2014

Note: Actual official high and low records may vary slightly from our data, if they occured in-between our weather recording intervals... More about our weather records

Advertising

Houston weather history for previous 24 hours

 ConditionsComfort  
Time TempWeatherWind HumidityBarometerVisibility
6:53 PM
Jan 30
57 °FPartly cloudy.6 mph58%30.32 "Hg10 mi
5:53 PM59 °FPartly sunny.9 mph46%30.31 "Hg10 mi
4:53 PM61 °FPartly sunny.7 mph41%30.31 "Hg10 mi
3:53 PM62 °FBroken clouds.7 mph39%30.32 "Hg10 mi
2:53 PM63 °FPartly sunny.9 mph43%30.33 "Hg10 mi
1:53 PM60 °FPartly sunny.5 mph47%30.35 "Hg10 mi
12:53 PM59 °FScattered clouds.7 mph49%30.38 "Hg10 mi
11:53 AM58 °FScattered clouds.12 mph54%30.41 "Hg10 mi
10:53 AM56 °FPartly sunny.14 mph58%30.42 "Hg10 mi
9:53 AM53 °FHigh level clouds.15 mph64%30.43 "Hg10 mi
8:53 AM52 °FHigh level clouds.17 mph64%30.42 "Hg10 mi
7:53 AM51 °FPartly sunny.12 mph69%30.40 "Hg10 mi
6:53 AM52 °FPassing clouds.15 mph64%30.38 "Hg10 mi
5:53 AM54 °FPassing clouds.16 mph59%30.36 "Hg10 mi
4:53 AM54 °FPassing clouds.8 mph64%30.34 "Hg10 mi
3:53 AM57 °FPassing clouds.17 mph58%30.33 "Hg10 mi
2:53 AM59 °FPassing clouds.15 mph54%30.34 "Hg10 mi
1:53 AM61 °FPassing clouds.18 mph50%30.33 "Hg10 mi
12:53 AM63 °FPassing clouds.15 mph48%30.32 "Hg10 mi
11:53 PM
Jan 29
65 °FPassing clouds.12 mph59%30.31 "Hg10 mi
10:53 PM65 °FPassing clouds.8 mph76%30.31 "Hg10 mi
9:53 PM64 °FPartly cloudy.5 mph81%30.30 "Hg10 mi
8:53 PM64 °FPassing clouds.3 mph75%30.28 "Hg10 mi
7:53 PM66 °FPassing clouds.3 mph68%30.26 "Hg10 mi
Weather by CustomWeather, © 2014

See weather overviewHow to use our weather pages